Regional Weather Roundup
Issued by NWS

Home | Current Version | Previous Version | Text Only | Print | Product List | Glossary Off
Versions: 1 2 3 4 5 6 7 8 9 10 11 12 13 14 15 16 17 18 19 20 21 22 23 24 25 26 27 28 29 30 31 32 33 34 35 36 37 38 39 40 41 42 43 44 45 46 47 48 49 50

683
ASUS45 KTFX 260310
RWRMT
MONTANA REGIONAL WEATHER ROUNDUP
NATIONAL WEATHER SERVICE GREAT FALLS MT
900 PM MDT MON JUL 25 2016

NOTE: "FAIR" INDICATES FEW OR NO CLOUDS BELOW 12000 FEET WITH NO
SIGNIFICANT WEATHER AND/OR OBSTRUCTIONS TO VISIBILITY.

MTZ001>007-043-260400-
WEST OF THE DIVIDE

CITY           SKY/WX    TMP DP  RH WIND       PRES   REMARKS
KALISPELL      CLEAR     79  53  40 VRB5      29.98S
MISSOULA       PTCLDY    84  48  28 N6        30.00S
BUTTE          CLOUDY    74  46  36 CALM      30.18R
MULLAN PASS    CLEAR     68  42  38 W3        30.22S
ANACONDA         N/A     66  52  59 SE5       30.15R
DEER LODGE       N/A     68  54  60 NW6       30.15R
EUREKA           N/A     84  48  28 N10       29.97R
HAMILTON         N/A     82  36  18 CALM      30.03R
LIBBY            N/A     84  46  26 CALM      29.97R
PLAINS           N/A     88  48  24 SW3       29.97R
RONAN            N/A     80  53  39 CALM      30.05S
THOMPSON FALLS   N/A     84  48  28 CALM      30.00R
$$

MTZ008-052>055-260400-
SOUTHWEST MONTANA

CITY           SKY/WX    TMP DP  RH WIND       PRES   REMARKS
BOZEMAN        CLOUDY    78  40  25 NW12      30.09R
DILLON         CLEAR     72  44  36 NE12      30.11R
W YELLOWSTONE  CLEAR     73  27  17 NW5       30.22R
ENNIS          CLEAR     77  39  25 N18G26    30.16S
THREE FORKS      N/A     82  82 100 NW18      30.07R HX  96
TWIN BRIDGES     N/A     80  39  23 N12       30.08S
$$

MTZ009-010-012-014-046-048-049-054-260400-
EAST SLOPES AND CENTRAL MONTANA

CITY           SKY/WX    TMP DP  RH WIND       PRES   REMARKS
CUT BANK         N/A     75  49  39 NE9       30.07F
GREAT FALLS    CLEAR     77  45  32 N8        30.04S
MALMSTROM AFB  CLEAR     80  44  27 N8        30.04R
HELENA         CLOUDY    74  48  39 SW14G22   30.07F
CHOTEAU          N/A     72  50  46 N8        30.10S
CONRAD           N/A     77  56  48 CALM      30.09S
$$

MTZ011-013-016-021-045-047-050-051-260400-
NORTH CENTRAL MONTANA

CITY           SKY/WX    TMP DP  RH WIND       PRES   REMARKS
HAVRE          CLEAR     80  59  48 NE13G25   29.99R
LEWISTOWN      CLOUDY    74  54  49 SE8       30.08F
N BAR RANCH      N/A     73  46  38 W5        30.14R
CHINOOK          N/A     81  59  47 E9        29.99R
$$

MTZ017>020-022>027-061-062-260400-
NORTHEAST MONTANA

CITY           SKY/WX    TMP DP  RH WIND       PRES   REMARKS
GLASGOW        CLEAR     77  57  50 NE15G21   29.96R
JORDAN           N/A     82  46  28 NE9       29.96R
SIDNEY         CLEAR     77  58  51 NE7       29.97R
WOLF POINT     CLEAR     79  55  43 E7        29.96R
PLENTYWOOD       N/A     73  63  68 N7        30.01R
POPLAR           N/A     75  55  50 E8        29.96S
SCOBEY           N/A     72  55  54 N7        30.02R
$$

MTZ028>42-056>058-260400-
SOUTHCENTRAL AND SOUTHEAST MONTANA

CITY           SKY/WX    TMP DP  RH WIND       PRES   REMARKS
BAKER          PTCLDY    76  55  48 NE7       29.99R
BILLINGS       MOCLDY    85  41  21 N13G23    29.98R THUNDER
LIVINGSTON     PTCLDY    77  46  33 SE12      30.08R
MILES CITY     CLEAR     87  46  24 NE14      29.93R
EKALAKA          N/A     83  46  27 E6        30.00R
FORSYTH          N/A     88  46  23 NE9       29.93R
LAUREL           N/A     85  43  22 N17       29.99R
ROUNDUP          N/A     80  45  29 NW6       29.96R
$$

REGIONAL REPORTS...DAKOTAS

CITY           SKY/WX    TMP DP  RH WIND       PRES   REMARKS
WILLISTON      CLEAR     80  59  48 NE6       29.98S
MINOT          CLEAR     74  67  78 N6        29.96S
DICKINSON      CLEAR     74  56  53 NE8       29.98R
BEACH            N/A     68  55  64 NE7       30.02R
CROSBY           N/A     72  64  78 S3        30.01R
WATFORD CITY     N/A    N/A N/A N/A MISG        N/A
BISMARCK       CLEAR     81  69  67 NE6       29.92R
GRAND FORKS    PTCLDY    79  71  76 NE8       29.89R
FARGO          CLEAR     81  65  58 SE9       29.91S
BUFFALO SD       N/A     80  52  37 E9        29.94S
RAPID CITY     CLEAR     77  58  51 SE6       29.99R
$$

REGIONAL REPORTS...WYOMING/IDAHO/WASHINGTON

CITY           SKY/WX    TMP DP  RH WIND       PRES   REMARKS
GILLETTE       CLOUDY    83  37  19 S9        30.02F
SHERIDAN       CLEAR     76  48  37 CALM      29.98R
BUFFALO WY     CLEAR     79  37  22 W6        30.08R
CODY           CLEAR     82  30  15 CALM      30.07R
YELLOWSTONE LA   N/A     61  31  32 NW3       30.34S
IDAHO FALLS    CLEAR     84  36  18 S10       30.04S
SALMON         CLEAR     79  45  29 CALM      29.99R
BOISE          CLEAR     93  32  11 N3        29.89F
SPOKANE        PTCLDY    89  42  19 NE5       29.96S
$$

REGIONAL REPORTS...ALBERTA

CITY           SKY/WX    TMP DP  RH WIND       PRES   REMARKS
EDMONTON       PTCLDY    68  54  60 SE6       30.01S
CALGARY        MOCLDY    64  57  77 SE13      30.10R
LETHBRIDGE     MOCLDY    68  59  73 E7        30.04R
MEDICINE HAT   PTCLDY    75  55  50 E10       30.02R
WATERTON GATE    N/A     66  55  68 E5          N/A
CARDSTON         N/A     70  57  64 SE2         N/A
MILK RIVER       N/A     68  57  68 NE8         N/A
ONEFOUR          N/A     75  55  50 NE10        N/A
$$

REGIONAL REPORTS...SASKATCHEWAN

CITY           SKY/WX    TMP DP  RH WIND       PRES   REMARKS
SWIFT CURRENT  CLEAR     66  57  72 NE7       30.07R
SASKATOON      MOCLDY    61  52  72 NW8       30.05S
CYPRESS HILLS    N/A     64  55  72 NE5         N/A
VAL MARIE        N/A     66  59  77 NE8         N/A
ROCKGLEN         N/A     68  61  77 N6          N/A
ASSINIBOIA       N/A     70  55  60 SE5         N/A
$$




USA.gov is the U.S. government's official web portal to all federal, state and local government web resources and services.